SBIRS GEO-3 (USA 282)

Last updated on Thu Aug 13 2026 00:03:01 GMT+0000 (Coordinated Universal Time)

1 43162U 18009A 26224.54019152 .00000111 00000+0 00000+0 0 9998 2 43162 2.2282 14.6435 0001795 130.0884 211.3175 1.00272038 31404
UTC large
Height (km)
Speed (km/s)
/
Latitude / Longitude
Inclination (degrees)
Orbital Period (minutes)
Azimuth
Elevation
Range (km)
Doppler Factor

Next 0 passes for location: London (51.5072 / 0.1276)

No passes found over London.
SBIRS GEO-3 (USA 282)